Zurück zum Katalog

COSMOS 2251 DEB

AktivVLEO
NORAD 37316·DEBRIS·🇷🇺 Russia

Gestartet Jun 16, 1993 von Plesetsk Cosmodrome

Loading…

Nächste Überflüge (nächste 24 Stunden)

TLE

AktuellSource: Space-Track

Epoche: Sep 14, 2026, 01:31 UTC

1 37316U 93036BKG 26257.06384134  .00030099  00000-0  17537-2 0  9998
2 37316  74.0146 177.7207 0028042 189.6881 170.3775 15.11538021902819

Verfolge COSMOS 2251 DEB in Echtzeit mit AllMySat

Download on the App Store